TimeCST,TemperatureF,Dew PointF,Humidity,Sea Level PressureIn,VisibilityMPH,Wind Direction,Wind SpeedMPH,Gust SpeedMPH,PrecipitationIn,Events,Conditions,WindDirDegrees,DateUTC
12:15 AM,32.2,19.8,60,30.35,10.0,WNW,4.6,-,N/A,,Clear,290,2013-02-16 06:15:00
12:35 AM,32.0,19.9,61,30.35,10.0,WNW,5.8,-,N/A,,Scattered Clouds,300,2013-02-16 06:35:00
12:55 AM,32.4,19.9,60,30.35,10.0,West,3.5,-,N/A,,Scattered Clouds,280,2013-02-16 06:55:00
1:15 AM,33.1,20.5,60,30.35,10.0,WNW,6.9,-,N/A,,Mostly Cloudy,290,2013-02-16 07:15:00
1:35 AM,33.6,20.5,59,30.35,10.0,NW,5.8,-,N/A,,Overcast,310,2013-02-16 07:35:00
1:55 AM,35.2,18.5,51,30.35,10.0,NW,8.1,-,N/A,,Overcast,320,2013-02-16 07:55:00
2:15 AM,35.4,20.3,54,30.36,10.0,NW,10.4,-,N/A,,Overcast,320,2013-02-16 08:15:00
2:35 AM,36.1,22.8,58,30.35,10.0,NNW,12.7,-,N/A,,Overcast,330,2013-02-16 08:35:00
2:55 AM,35.4,27.1,72,30.38,3.0,NW,13.8,-,N/A,Snow,Light Snow,320,2013-02-16 08:55:00
3:15 AM,32.2,31.1,96,30.37,5.0,NW,11.5,-,N/A,Snow,Light Snow,310,2013-02-16 09:15:00
3:35 AM,32.4,31.1,95,30.35,10.0,NW,9.2,-,N/A,Snow,Light Snow,310,2013-02-16 09:35:00
3:55 AM,32.4,31.3,96,30.35,10.0,NW,8.1,-,N/A,,Overcast,310,2013-02-16 09:55:00
4:15 AM,32.5,31.5,96,30.34,10.0,NW,5.8,-,N/A,,Overcast,310,2013-02-16 10:15:00
4:35 AM,32.9,31.6,95,30.34,10.0,NW,5.8,-,N/A,,Overcast,320,2013-02-16 10:35:00
4:55 AM,32.9,31.5,94,30.34,10.0,NW,6.9,-,N/A,,Overcast,320,2013-02-16 10:55:00
5:15 AM,32.4,31.1,95,30.34,10.0,NNW,6.9,-,N/A,,Mostly Cloudy,330,2013-02-16 11:15:00
5:35 AM,32.0,30.7,95,30.34,10.0,NW,5.8,-,N/A,,Scattered Clouds,320,2013-02-16 11:35:00
5:55 AM,32.0,30.2,93,30.35,10.0,NW,8.1,-,N/A,,Scattered Clouds,310,2013-02-16 11:55:00
6:15 AM,31.8,30.2,94,30.35,10.0,NW,6.9,-,N/A,,Scattered Clouds,310,2013-02-16 12:15:00
6:35 AM,31.5,29.8,94,30.35,10.0,NW,8.1,-,N/A,,Clear,310,2013-02-16 12:35:00
6:55 AM,31.3,29.3,92,30.35,10.0,WNW,8.1,-,N/A,,Clear,300,2013-02-16 12:55:00
7:15 AM,31.1,29.3,93,30.35,10.0,WNW,5.8,-,N/A,,Clear,300,2013-02-16 13:15:00
7:35 AM,31.5,29.8,94,30.37,10.0,West,8.1,-,N/A,,Clear,280,2013-02-16 13:35:00
7:55 AM,32.0,30.2,93,30.38,10.0,NW,8.1,-,N/A,,Clear,310,2013-02-16 13:55:00
8:15 AM,32.9,30.7,92,30.38,10.0,NNW,6.9,-,N/A,,Clear,330,2013-02-16 14:15:00
8:35 AM,33.8,29.3,84,30.38,10.0,NNW,8.1,-,N/A,,Clear,330,2013-02-16 14:35:00
8:55 AM,34.5,28.9,80,30.39,10.0,NNW,10.4,-,N/A,,Clear,330,2013-02-16 14:55:00
9:15 AM,35.8,26.4,69,30.39,10.0,North,9.2,16.1,N/A,,Clear,350,2013-02-16 15:15:00
9:35 AM,37.0,21.9,54,30.38,10.0,North,13.8,19.6,N/A,,Clear,360,2013-02-16 15:35:00
12:15 PM,44.6,15.6,31,30.36,10.0,NW,6.9,-,N/A,,Clear,320,2013-02-16 18:15:00
12:35 PM,44.4,13.6,29,30.35,10.0,WNW,12.7,-,N/A,,Clear,300,2013-02-16 18:35:00
12:55 PM,45.1,13.1,27,30.33,10.0,NNW,4.6,17.3,N/A,,Clear,330,2013-02-16 18:55:00
1:15 PM,46.0,12.7,26,30.32,10.0,NW,8.1,-,N/A,,Clear,310,2013-02-16 19:15:00
1:35 PM,46.8,13.1,26,30.31,10.0,WNW,10.4,-,N/A,,Clear,290,2013-02-16 19:35:00
1:55 PM,47.3,15.3,28,30.30,10.0,West,5.8,-,N/A,,Clear,280,2013-02-16 19:55:00
2:15 PM,46.0,12.9,26,30.29,10.0,NW,3.5,-,N/A,,Clear,320,2013-02-16 20:15:00
2:35 PM,47.5,14.2,26,30.28,10.0,NW,6.9,-,N/A,,Clear,310,2013-02-16 20:35:00
2:55 PM,47.7,13.8,26,30.26,10.0,WNW,6.9,-,N/A,,Clear,300,2013-02-16 20:55:00
3:15 PM,48.0,12.7,24,30.25,10.0,NW,10.4,-,N/A,,Clear,310,2013-02-16 21:15:00
3:35 PM,47.8,12.6,24,30.25,10.0,West,6.9,-,N/A,,Clear,270,2013-02-16 21:35:00
3:55 PM,48.2,14.4,26,30.25,10.0,WNW,9.2,-,N/A,,Clear,290,2013-02-16 21:55:00
4:15 PM,48.4,14.4,26,30.25,10.0,West,4.6,-,N/A,,Clear,260,2013-02-16 22:15:00
4:35 PM,48.2,13.8,25,30.24,10.0,WSW,3.5,-,N/A,,Clear,250,2013-02-16 22:35:00
4:55 PM,47.8,14.2,26,30.23,10.0,West,4.6,-,N/A,,Clear,270,2013-02-16 22:55:00
5:15 PM,47.7,15.4,28,30.23,10.0,WNW,5.8,-,N/A,,Clear,290,2013-02-16 23:15:00
5:35 PM,46.8,14.9,28,30.22,10.0,Calm,Calm,-,N/A,,Clear,0,2013-02-16 23:35:00
5:55 PM,45.1,16.3,32,30.21,10.0,Calm,Calm,-,N/A,,Clear,0,2013-02-16 23:55:00
6:15 PM,44.6,15.8,31,30.21,10.0,SSE,4.6,-,N/A,,Clear,160,2013-02-17 00:15:00
6:35 PM,43.9,16.3,33,30.20,10.0,SSE,3.5,-,N/A,,Clear,150,2013-02-17 00:35:00
6:55 PM,42.6,18.3,38,30.20,10.0,SSE,3.5,-,N/A,,Clear,160,2013-02-17 00:55:00
7:15 PM,41.7,19.4,41,30.20,10.0,South,3.5,-,N/A,,Clear,170,2013-02-17 01:15:00
7:35 PM,40.6,19.8,43,30.20,10.0,SSE,3.5,-,N/A,,Clear,160,2013-02-17 01:35:00
7:55 PM,40.6,18.3,41,30.20,10.0,SSE,3.5,-,N/A,,Clear,160,2013-02-17 01:55:00
8:15 PM,39.7,19.9,45,30.20,10.0,South,4.6,-,N/A,,Clear,170,2013-02-17 02:15:00
8:35 PM,38.3,21.2,50,30.19,10.0,SSE,3.5,-,N/A,,Clear,160,2013-02-17 02:35:00
8:55 PM,38.1,20.8,50,30.19,10.0,SSE,5.8,-,N/A,,Clear,160,2013-02-17 02:55:00
9:15 PM,38.7,19.8,47,30.19,10.0,SSE,5.8,-,N/A,,Clear,160,2013-02-17 03:15:00
9:35 PM,37.6,20.8,51,30.19,10.0,South,3.5,-,N/A,,Clear,170,2013-02-17 03:35:00
9:55 PM,36.7,21.2,54,30.19,10.0,South,4.6,-,N/A,,Clear,170,2013-02-17 03:55:00
10:15 PM,37.0,21.6,54,30.19,10.0,South,4.6,-,N/A,,Clear,170,2013-02-17 04:15:00
10:35 PM,37.2,21.4,53,30.18,10.0,South,4.6,-,N/A,,Clear,170,2013-02-17 04:35:00
10:55 PM,37.0,21.7,54,30.18,10.0,SSE,4.6,-,N/A,,Clear,160,2013-02-17 04:55:00
11:15 PM,36.7,22.3,56,30.17,10.0,SSE,3.5,-,N/A,,Clear,160,2013-02-17 05:15:00
11:35 PM,37.2,21.2,52,30.17,10.0,SSE,3.5,-,N/A,,Clear,160,2013-02-17 05:35:00
11:55 PM,36.7,21.7,55,30.17,10.0,Calm,Calm,-,N/A,,Clear,0,2013-02-17 05:55:00